Thessaloniki, Greece

6:17 AM EEST on September 20, 2017 (GMT +0300)
Makedonia

Weather History for LGTS - February, 2013

Change the Weather History Date:

Sunday, February 10, 2013

  Actual Average Record
Temperature  
Mean Temperature 44 °F -  
Max Temperature 54 °F 54 °F 62 °F (2014)
Min Temperature 34 °F 37 °F 23 °F (2005)
Degree Days  
Heating Degree Days 21    
Moisture  
Dew Point 32 °F    
Average Humidity 66    
Maximum Humidity 93    
Minimum Humidity 26    
Precipitation  
Precipitation 0.00 in 0.06 in - ()
Sea Level Pressure  
Sea Level Pressure 29.81 in    
Wind  
Wind Speed 3 mph ()    
Max Wind Speed 8 mph    
Max Gust Speed -    
Visibility 6.1 miles    
Events      
Averages and records for this station are not official NWS values.
T = Trace of Precipitation, MM = Missing Value Source: Averaged Metar Reports

Daily Weather History Graph

Daily Weather History Graph

Search for Another Location

Airport or City:

Trip Planner

Search our weather history database for the weather conditions in past years. The results will help you decide how hot, cold, wet, or windy it might be!

Date:

Astronomy

Feb. 10, 2013 Rise Set
Actual Time 7:28 AM EET 5:57 PM EET
Civil Twilight 6:59 AM EET 6:25 PM EET
Nautical Twilight 6:27 AM EET 6:57 PM EET
Astronomical Twilight 5:55 AM EET 7:29 PM EET
Moon 7:06 AM EET (2/10) 6:27 PM EET (2/10)
Length of Visible Light 11h 25m
Length of Day
10h 29m
New Moon, 0% of the Moon is Illuminated
Feb 10
New Moon
Feb 17
First Quarter
Feb 25
Full
Mar 4
Last Quarter
Mar 11
New

Hourly Weather History & Observations

Time (EET) Temp. Windchill Dew Point Humidity Pressure Visibility Wind Dir Wind Speed Gust Speed Precip Events Conditions
12:20 AM 41.0 °F 39.0 °F 35.6 °F 81% 29.80 in 6.2 mi Variable 3.5 mph - N/A   Scattered Clouds
12:50 AM 42.8 °F 41.1 °F 37.4 °F 81% 29.80 in 6.2 mi Variable 3.5 mph - N/A   Scattered Clouds
1:20 AM 46.4 °F 42.9 °F 37.4 °F 71% 29.80 in 6.2 mi WNW 6.9 mph - N/A   Mostly Cloudy
1:50 AM 46.4 °F 44.3 °F 37.4 °F 71% 29.80 in 6.2 mi WNW 4.6 mph - N/A   Mostly Cloudy
2:00 AM 46 °F - 36 °F 60% 29.81 in 6 mi WNW 4.6 mph - -   Scattered Clouds
2:20 AM 42.8 °F - 35.6 °F 76% 29.80 in 6.2 mi Calm Calm - N/A   Mostly Cloudy
2:50 AM 44.6 °F - 37.4 °F 76% 29.80 in 6.2 mi Calm Calm - N/A   Mostly Cloudy
3:20 AM 41.0 °F - 35.6 °F 81% 29.80 in 6.2 mi Variable 2.3 mph - N/A   Scattered Clouds
3:50 AM 41.0 °F 39.0 °F 35.6 °F 81% 29.80 in 6.2 mi Variable 3.5 mph - N/A   Scattered Clouds
4:20 AM 39.2 °F - 35.6 °F 87% 29.80 in 6.2 mi Calm Calm - N/A   Scattered Clouds
4:50 AM 37.4 °F 33.8 °F 33.8 °F 87% 29.80 in 6.2 mi SE 4.6 mph - N/A   Scattered Clouds
5:20 AM 35.6 °F - 33.8 °F 93% 29.80 in 6.2 mi Calm Calm - N/A   Scattered Clouds
5:50 AM 37.4 °F 33.8 °F 33.8 °F 87% 29.80 in 6.2 mi ESE 4.6 mph - N/A   Scattered Clouds
6:20 AM 35.6 °F 32.8 °F 33.8 °F 93% 29.80 in 6.2 mi Variable 3.5 mph - N/A   Scattered Clouds
6:50 AM 35.6 °F 31.7 °F 33.8 °F 93% 29.80 in 6.2 mi SE 4.6 mph - N/A   Scattered Clouds
7:20 AM 35.6 °F 31.7 °F 32.0 °F 87% 29.80 in 5.0 mi East 4.6 mph - N/A   Mostly Cloudy
7:50 AM 35.6 °F 32.8 °F 32.0 °F 87% 29.80 in 5.0 mi Variable 3.5 mph - N/A   Mostly Cloudy
8:00 AM 35 °F - 33 °F 88% 29.82 in 5 mi 3.5 mph - -   Mist
8:20 AM 37.4 °F 34.9 °F 35.6 °F 93% 29.80 in 5.0 mi Variable 3.5 mph - N/A   Mostly Cloudy
8:50 AM 39.2 °F - 37.4 °F 93% 29.83 in 5.0 mi Variable 2.3 mph - N/A   Mostly Cloudy
9:20 AM 41.0 °F - 37.4 °F 87% 29.83 in 5.6 mi Variable 1.2 mph - N/A   Mostly Cloudy
9:50 AM 44.6 °F - 39.2 °F 81% 29.83 in 6.2 mi Variable 1.2 mph - N/A   Mostly Cloudy
10:20 AM 48.2 °F - 39.2 °F 71% 29.83 in 6.2 mi Variable 1.2 mph - N/A   Mostly Cloudy
10:50 AM 50.0 °F - 39.2 °F 66% 29.83 in 6.2 mi Variable 2.3 mph - N/A   Mostly Cloudy
11:20 AM 48.2 °F - 37.4 °F 66% 29.83 in 6.2 mi Variable 3.5 mph - N/A   Scattered Clouds
11:50 AM 50.0 °F - 33.8 °F 54% 29.83 in 6.2 mi NNW 5.8 mph - N/A   Scattered Clouds
12:20 PM 51.8 °F - 33.8 °F 50% 29.83 in 6.2 mi NNW 4.6 mph - N/A   Scattered Clouds
12:50 PM 51.8 °F - 32.0 °F 47% 29.83 in 6.2 mi NNW 4.6 mph - N/A   Scattered Clouds
1:20 PM 53.6 °F - 32.0 °F 44% 29.83 in 6.2 mi NNW 4.6 mph - N/A   Scattered Clouds
1:50 PM 51.8 °F - 28.4 °F 41% 29.83 in 6.2 mi Calm Calm - N/A   Scattered Clouds
2:00 PM 53 °F - 28 °F 26% 29.83 in 6 mi Calm Calm - -   Scattered Clouds
2:20 PM 53.6 °F - 28.4 °F 38% 29.83 in 6.2 mi Calm Calm - N/A   Scattered Clouds
2:50 PM 53.6 °F - 24.8 °F 33% 29.80 in 6.2 mi WNW 2.3 mph - N/A   Scattered Clouds
3:20 PM 53.6 °F - 24.8 °F 33% 29.80 in 6.2 mi Variable 2.3 mph - N/A   Scattered Clouds
3:50 PM 53.6 °F - 24.8 °F 33% 29.80 in 6.2 mi Calm Calm - N/A   Scattered Clouds
4:20 PM 53.6 °F - 24.8 °F 33% 29.80 in 6.2 mi Calm Calm - N/A   Scattered Clouds
4:50 PM 55.4 °F - 23.0 °F 29% 29.80 in 6.2 mi Calm Calm - N/A   Scattered Clouds
5:20 PM 55.4 °F - 23.0 °F 29% 29.80 in 6.2 mi Calm Calm - N/A   Scattered Clouds
6:20 PM 48.2 °F - 26.6 °F 43% 29.80 in 6.2 mi Calm Calm - N/A   Scattered Clouds
6:50 PM 46.4 °F 45.2 °F 28.4 °F 50% 29.80 in 6.2 mi Variable 3.5 mph - N/A   Scattered Clouds
7:20 PM 42.8 °F 41.1 °F 28.4 °F 57% 29.80 in 6.2 mi Variable 3.5 mph - N/A   Scattered Clouds
7:50 PM 41.0 °F 36.4 °F 28.4 °F 61% 29.80 in 6.2 mi ESE 6.9 mph - N/A   Scattered Clouds
8:00 PM 40 °F - 29 °F 53% 29.81 in 6 mi ESE 6.9 mph - -   Scattered Clouds
8:20 PM 39.2 °F 34.2 °F 28.4 °F 65% 29.80 in 6.2 mi ESE 6.9 mph - N/A   Scattered Clouds
8:50 PM 39.2 °F 34.2 °F 28.4 °F 65% 29.80 in 6.2 mi ESE 6.9 mph - N/A   Scattered Clouds
9:20 PM 37.4 °F 32.8 °F 28.4 °F 70% 29.80 in 6.2 mi ESE 5.8 mph - N/A   Scattered Clouds
9:50 PM 37.4 °F 32.1 °F 28.4 °F 70% 29.80 in 6.2 mi ESE 6.9 mph - N/A   Scattered Clouds
10:20 PM 37.4 °F 34.9 °F 28.4 °F 70% 29.80 in 6.2 mi Variable 3.5 mph - N/A   Scattered Clouds
10:50 PM 37.4 °F 33.8 °F 28.4 °F 70% 29.80 in 6.2 mi ESE 4.6 mph - N/A   Scattered Clouds
11:20 PM 35.6 °F 29.9 °F 28.4 °F 75% 29.80 in 6.2 mi ESE 6.9 mph - N/A   Scattered Clouds
11:50 PM 37.4 °F 31.4 °F 28.4 °F 70% 29.80 in 6.2 mi ESE 8.1 mph - N/A   Scattered Clouds